Simultaneous Nadir Overpasses (SNOs) Predictions

Prediction of SNOs between METOP-B and NOAA-19 Satellite Orbit:

Table of predicted SNOs for the next 14.0 days since TLE Epoch: 10/3/2015
Index Date (METOP-B) Time (METOP-B) Lat,Lon (METOP-B) SZA (METOP-B ) Date (NOAA-19) Time (NOAA-19) Lat,Lon (NOAA-19) SZA (NOAA-19 ) Distance(km) Time Diff (sec)
1 10/05/2015 07:16:24 75.76, 70.58 80.34 10/05/2015 07:15:17 75.80, 67.52 80.36 83.78 67
2 10/05/2015 08:07:15 -75.31,-123.48 100.12 10/05/2015 08:06:03 -75.29,-123.55 100.14 2.97 72
3 10/05/2015 08:57:56 75.27, 43.72 79.86 10/05/2015 08:57:08 75.27, 43.74 79.86 0.57 48
4 10/05/2015 09:48:38 -75.24,-149.02 100.16 10/05/2015 09:48:05 -75.27,-148.99 100.13 3.04 33
5 10/05/2015 10:39:18 75.25, 18.32 79.86 10/05/2015 10:39:10 75.25, 18.30 79.87 0.72 8
6 10/05/2015 11:30:00 -75.22,-174.43 100.15 10/05/2015 11:30:07 -75.25,-174.43 100.13 2.79 7
7 10/05/2015 12:20:40 75.23, -7.08 79.87 10/05/2015 12:21:12 75.23, -7.14 79.87 1.77 32
8 10/05/2015 13:11:22 -75.20, 160.17 100.15 10/05/2015 13:12:09 -75.23, 160.13 100.12 3.01 47
9 10/05/2015 14:02:02 75.21, -32.48 79.88 10/05/2015 14:03:14 75.21, -32.58 79.88 2.87 72
10 10/05/2015 14:52:54 -74.70, 133.42 100.62 10/05/2015 14:54:01 -74.74, 136.08 100.57 77.95 67
11 10/15/2015 20:40:22 75.34,-131.71 83.90 10/15/2015 20:39:10 75.35,-131.82 83.91 3.52 72
12 10/15/2015 21:31:04 -75.32, 35.55 96.12 10/15/2015 21:30:05 -75.32, 35.53 96.11 1.09 59
13 10/15/2015 22:21:44 75.31,-157.12 83.90 10/15/2015 22:21:11 75.28,-157.12 83.87 3.47 33
14 10/15/2015 23:12:26 -75.29, 10.15 96.11 10/15/2015 23:12:07 -75.30, 10.09 96.11 2.01 19
15 10/16/2015 00:03:07 75.25, 177.34 83.86 10/16/2015 00:03:13 75.26, 177.44 83.87 3.32 6
16 10/16/2015 00:53:48 -75.27, -15.25 96.11 10/16/2015 00:54:09 -75.28, -15.36 96.10 3.11 21
17 10/16/2015 01:44:29 75.22, 151.94 83.86 10/16/2015 01:45:15 75.24, 151.99 83.88 2.46 46
18 10/16/2015 02:35:11 -75.20, -40.79 96.15 10/16/2015 02:36:10 -75.21, -40.66 96.14 4.08 59
19 10/16/2015 03:26:01 74.72, 125.18 83.37 10/16/2015 03:27:07 74.75, 127.95 83.43 81.32 66




NCC Satellite Simultaneous Nadir Overpasses (SNOs) Prediction Service
